Theta_e
317 317 316 315 318 322 321 320 320 317 317 319 319 318 315 312 309 307 306 306 305 303
310 311 312 311 311 312 313 313 314 314 313 313 313 313 314 312 308 307 306 305 304 302
301 303 305 306 307 306 306 306 306 308 309 310 309 309 309 308 306 305 304 303 303 302
298 299 300 301 301 302 302 302 301 302 302 303 304 306 306 306 304 303 303 302 302 302
296 296 297 297 298 298 299 299 299 298 298 299 300 301 303 303 303 303 302 302 301 301
292 292 293 294 295 295 296 296 296 295 295 295 296 299 300 301 301 301 302 301 299 299
289 289 290 291 291 291 292 292 292 292 292 292 292 292 293 293 296 298 299 298 296 296
287 288 288 288 288 288 289 289 289 289 290 290 289 289 290 290 292 292 293 291 292 292
285 285 286 286 286 287 287 287 288 288 288 288 287 290 292 292 289 289 289 290 290 290
284 283 284 284 285 285 285 286 286 286 286 286 287 290 291 291 289 288 288 288 288 288
282 282 283 282 283 282 283 283 283 284 284 283 285 288 290 290 288 287 287 286 287 287
281 279 279 278 280 281 280 281 280 282 281 280 281 286 287 288 286 286 286 286 286 286
279 276 276 278 278 279 277 279 279 280 280 277 279 284 287 287 286 285 285 285 285 284
278 276 277 276 276 275 275 275 276 276 277 277 277 280 285 287 286 285 285 285 284 284
Wind_Speed
3 2 3 4 4 5 6 5 6 6 6 8 9 10 10 8 10 10 11 13 12 9
2 2 0 2 3 3 3 2 4 5 6 6 5 6 7 8 9 10 11 11 10 9
5 4 2 0 3 3 3 3 4 5 5 5 5 5 7 6 6 9 7 8 10 11
6 5 5 3 3 3 3 4 5 5 5 7 7 6 6 7 5 9 9 9 10 12
6 6 6 5 5 4 5 4 5 5 5 6 7 6 9 10 8 10 11 11 11 12
5 5 5 4 4 5 5 5 5 5 5 6 6 7 9 9 9 10 11 10 10 11
8 6 6 5 5 5 4 5 6 5 5 6 6 7 7 7 8 9 9 9 8 8
6 6 6 7 7 5 5 4 5 6 5 5 5 5 7 7 9 9 9 7 7 8
8 9 9 9 10 9 8 6 5 5 5 6 4 10 12 10 7 7 8 9 8 8
6 6 6 6 6 8 9 9 9 8 7 7 6 10 11 11 6 6 7 7 7 7
6 6 7 6 6 6 3 5 6 7 7 7 7 12 11 10 5 6 8 8 8 9
5 6 6 6 6 5 3 5 4 5 7 5 8 11 11 9 4 6 8 7 7 8
4 4 5 6 6 4 3 6 5 7 4 5 7 12 11 9 3 6 5 5 7 11
5 5 4 5 3 4 6 6 6 6 7 7 5 7 13 12 5 6 6 6 5 4
Wind_Direction
180 190 196 193 202 221 211 208 213 213 225 223 214 209 202 202 210 213 216 221 225 223
38 32 283 233 198 223 251 258 246 223 224 223 220 209 202 211 211 202 209 217 211 216
30 28 16 329 259 256 261 239 244 252 251 242 222 211 210 218 202 203 207 210 213 218
25 13 13 4 336 301 282 259 245 241 239 243 240 226 217 220 204 215 218 212 214 222
33 18 15 357 342 326 285 271 255 247 237 247 245 228 235 239 228 232 234 231 223 230
30 22 8 354 346 337 317 301 294 276 262 253 247 245 242 240 235 235 239 232 223 229
17 2 352 348 352 346 335 313 304 283 267 257 247 240 239 237 243 242 240 235 226 225
356 355 357 0 353 344 348 332 322 305 291 277 256 249 243 234 239 240 242 233 229 226
5 0 360 355 352 350 344 338 330 316 302 294 273 274 264 248 241 241 242 248 246 241
356 348 346 338 338 345 340 338 334 330 332 314 297 299 280 255 238 243 245 250 256 261
354 346 342 342 341 331 313 318 314 312 313 308 300 306 290 273 246 249 249 244 240 240
336 331 330 328 322 309 309 315 298 301 305 298 295 305 299 290 261 249 249 247 244 248
305 286 299 301 308 288 296 291 302 307 290 293 292 306 307 299 260 266 263 255 252 244
305 299 283 297 281 298 311 309 309 311 309 297 266 287 303 298 278 267 275 264 267 249